Location: Tom
(33.0437°N, 96.9452°W)
Time: 16:12:57
(UTC-05:00)

Envisat - Visible Passes

Search period start: 18 October 2019 00:00
Search period end: 28 October 2019 00:00
Orbit: 764 x 766 km, 98.1° (Epoch: 18 October)

Date Brightness Start Highest point End Pass type
(mag) Time Alt. Az. Time Alt. Az. Time Alt. Az.
18 Oct 4.8 20:23:05 10° SSW 20:27:33 32° W 20:32:04 10° NW visible
19 Oct 6.8 07:00:06 10° ENE 07:01:20 11° E 07:02:36 10° ESE visible
19 Oct 3.1 19:45:39 10° S 19:50:43 78° WSW 19:55:49 10° NNW visible
20 Oct 3.3 19:09:18 10° SE 19:14:03 43° ENE 19:18:51 10° N visible
20 Oct 5.8 20:49:57 10° SW 20:53:13 17° W 20:56:29 10° NW visible
21 Oct 4.3 20:11:29 10° S 20:16:15 41° W 20:21:02 10° NNW visible
22 Oct 2.9 19:34:25 10° SSE 19:39:28 81° ENE 19:44:33 10° N visible
23 Oct 5.4 20:37:58 10° SW 20:41:52 22° W 20:45:47 10° NW visible
24 Oct 6.2 07:12:36 10° NE 07:15:43 16° E 07:18:50 10° SE visible
24 Oct 3.8 20:00:01 10° S 20:04:58 54° W 20:09:56 10° NNW visible
25 Oct 3.0 19:23:14 10° SSE 19:28:14 62° ENE 19:33:15 10° N visible
25 Oct 6.2 21:05:56 10° WSW 21:07:35 11° W 21:09:13 10° WNW visible
26 Oct 5.0 20:26:12 10° SSW 20:30:32 29° W 20:34:55 10° NW visible
27 Oct 6.5 07:02:21 10° ENE 07:04:21 12° E 07:06:22 10° ESE visible
27 Oct 3.3 19:48:38 10° S 19:53:41 71° WSW 19:58:46 10° NNW visible
